Location: Alma
(38.7220°N, 88.9090°W)
Time: 17:06:44
(UTC-05:00)

OTV 5 (USA 277) - Visible Passes

Search period start: 15 October 2019 00:00
Search period end: 25 October 2019 00:00
Orbit: 310 x 324 km, 54.5° (Epoch: 08 October)

Date Brightness Start Highest point End Pass type
(mag) Time Alt. Az. Time Alt. Az. Time Alt. Az.
15 Oct ? 06:30:21 10° N 06:31:28 12° NNE 06:32:36 10° NE visible
18 Oct ? 05:39:38 12° N 05:41:01 16° NNE 05:42:52 10° ENE visible
19 Oct ? 05:54:09 19° NNW 05:55:44 37° NE 05:58:19 10° ESE visible
20 Oct ? 06:08:48 23° WNW 06:10:19 64° SW 06:13:00 10° SE visible
21 Oct ? 04:52:41 11° E 04:52:41 11° E 04:52:48 10° E visible
21 Oct ? 06:23:36 16° W 06:24:43 19° SW 06:26:47 10° S visible
22 Oct ? 05:07:36 12° SE 05:07:36 12° SE 05:07:51 10° SE visible
